AirNav   Air Wisconsin pilot careers
 
 789 users online  

T45 Panhandle-Carson County Airport
Panhandle, Texas, USA

GOING TO PANHANDLE?


FAA INFORMATION EFFECTIVE 23 MAY 2019

Location

FAA Identifier: T45
Lat/Long: 35-21-42.1000N / 101-21-54.3000W
35-21.701667N / 101-21.905000W
35.3616944 / -101.3650833
(estimated)
Elevation: 3453.7 ft. / 1052.7 m (surveyed)
Variation: 08E (1995)
From city: 1 mile NE of PANHANDLE, TX
Time zone: UTC -5 (UTC -6 during Standard Time)
Zip code: 79068

Airport Operations

Airport use: Open to the public
Activation date: 07/1984
Control tower: no
ARTCC: ALBUQUERQUE CENTER
FSS: FORT WORTH FLIGHT SERVICE STATION
NOTAMs facility: FTW (NOTAM-D service available)
Attendance: UNATNDD
Wind indicator: lighted
Segmented circle: yes
Lights: MIRL RY 17/35 PRESET LOW INTST; TO INCR INTST ACTVT - 123.5.
Beacon: white-green (lighted land airport)
Operates sunset to sunrise.

Airport Communications

CTAF/UNICOM: 122.7
AMARILLO APPROACH: 119.5
AMARILLO DEPARTURE: 119.5
WX ASOS at AMA (19 nm SW): 118.85 (806-335-1060)
  • APCH/DEP SERVICE PROVIDED BY ALBUQUERQUE ARTCC ON FREQS 127.85/285.475 (AMARILLO RCAG) WHEN AMARILLO APCH CTL CLSD.

Nearby radio navigation aids

VOR radial/distance  VOR name  Freq  Var
PNHr057/18.0PANHANDLE VORTAC116.6008E
BGDr167/26.7BORGER VORTAC108.6011E

Airport Services

Fuel available: 100LL
Parking: tiedowns

Runway Information

Runway 17/35

Dimensions: 4404 x 60 ft. / 1342 x 18 m
Surface: asphalt, in fair condition
Weight bearing capacity: 
Single wheel: 12.5
Runway edge lights: medium intensity
RUNWAY 17  RUNWAY 35
Latitude: 35-22.064050N35-21.338197N
Longitude: 101-21.905333W101-21.904068W
Elevation: 3451.0 ft.3451.9 ft.
Traffic pattern: leftright
Runway heading: 172 magnetic, 180 true352 magnetic, 360 true
Markings: nonprecision, in fair conditionnonprecision, in fair condition
Touchdown point: yes, no lightsyes, no lights
Obstructions: 10 ft. road, 395 ft. from runway, 19:1 slope to clear15 ft. road, 200 ft. from runway, 210 ft. left of centerline
+15 FT ROAD AT THLD 210 FT LEFT

Airport Ownership and Management from official FAA records

Ownership: Publicly-owned
Owner: CITY OF PANHANDLE & CARSON CO
P.O. BOX 129
PANHANDLE, TX 79068
Phone 806-537-3517
Manager: TERRY COFFEE
P O BOX 129
PANHANDLE, TX 79068
Phone 806-537-3517
CITY MANAGER.

Airport Operational Statistics

Aircraft based on the field: 6
Single engine airplanes: 6
    
Aircraft operations: avg 34/week *
67% local general aviation
33% transient general aviation
* for 12-month period ending 15 November 2017

Instrument Procedures

NOTE: All procedures below are presented as PDF files. If you need a reader for these files, you should download the free Adobe Reader.

NOT FOR NAVIGATION. Please procure official charts for flight.
FAA instrument procedures published for use from 23 May 2019 at 0901Z to 20 June 2019 at 0900Z.

 
IAPs - Instrument Approach Procedures
RNAV (GPS) RWY 17 **CHANGED**   download (170KB)
RNAV (GPS) RWY 35 **CHANGED**   download (153KB)
VOR-A **CHANGED**   download (164KB)
NOTE: Special Take-Off Minimums/Departure Procedures apply   download (113KB)

Other nearby airports with instrument procedures:

KAMA - Rick Husband Amarillo International Airport (19 nm SW)
KBGD - Hutchinson County Airport (20 nm N)
KPPA - Perry Lefors Field Airport (23 nm NE)
KTDW - Tradewind Airport (25 nm SW)
KDUX - Moore County Airport (43 nm NW)
 
Loc | Ops | Rwys | IFR | FBO | Links
Com | Nav | Svcs | Stats | Notes

AirBoss

 
Area around T45 (Panhandle-Carson County Airport)
 
Road maps at: MapQuest Bing Google
 
Aerial photo
WARNING: Photo may not be current or correct
Aerial photo of T45 (Panhandle-Carson County Airport)
Do you have a better or more recent aerial photo of Panhandle-Carson County Airport that you would like to share? If so, please send us your photo.

 
Sectional chart

 
Airport distance calculator
Flying to Panhandle-Carson County Airport? Find the distance to fly.

From to T45

Sunrise and sunset
Times for 25-May-2019
 Local
(UTC-5)
 Zulu
(UTC)
Morning civil twilight06:0711:07
Sunrise06:3611:36
Sunset20:4901:49
Evening civil twilight21:1802:18

Current date and time
Zulu (UTC)  26-May-2019 02:55:50
Local (UTC-5)  25-May-2019 21:55:50
 
METAR
KAMA 
19nm SW 
260153Z 16017G21KT 10SM CLR 18/16 A2991 RMK AO2 SLP088 T01830156 $
KBGD 
20nm N 
260151Z AUTO 15004KT 10SM CLR 22/16 A2990 RMK AO2 SLP089 T02170156
KPPA 
22nm NE 
260235Z AUTO 04009KT 10SM CLR 16/15 A2994 RMK AO2 T01560150
KBPC 
36nm NE 
260235Z AUTO 10005KT 10SM CLR 16/15 A2993 RMK AO2
TAF
KAMA 
19nm SW 
251954Z 2520/2618 17018KT P6SM VCTS SCT015CB OVC030 TEMPO 2520/2524 VRB25G40KT 2SM TSRA OVC015CB FM260000 17020G27KT P6SM BKN050 FM260300 16012KT P6SM SCT015 OVC040
NOTAMs
Click for the latest NOTAMs
NOTAMs are issued by the DoD/FAA and will open in a separate window not controlled by AirNav.

 

 
 

FBO, Fuel Providers, and Aircraft Ground Support

  
 Business Name 
 
 Contact 
 
 Services / Description 
 
Fuel Prices
 
Comments
  
Panhandle/Carson County Airport 806-537-3517
no information available

If you are affiliated with Panhandle/Carson County Airport and would like to show here your services, contact info, web link, logo, and more, click here
100LL
PS $4.58 
 Updated 15-May-2019
 
   write
PS=Pump service
Update Fuel Prices
 

Would you like to see your business listed on this page?

 If your business provides an interesting product or service to pilots, flight crews, aircraft, or users of the Panhandle-Carson County Airport, you should consider listing it here.  To start the listing process, click on the button below
 
Add a business
 

Other Pages about Panhandle-Carson County Airport

Update a link
 
Copyright © AirNav, LLC. All rights reserved. Privacy Policy  Contact